Olean, NY

2:27 PM EDT on October 21, 2019 (GMT -0400)
Cattaraugus County-Olean

Weather History for KOLE - September, 2019

Change the Weather History Date:

Thursday, September 19, 2019

  Actual Average (KBFD) Record (KBFD)
Temperature  
Mean Temperature 56 °F -  
Max Temperature 66 °F 66 °F 82 °F (1965)
Min Temperature 46 °F 46 °F 26 °F (1959)
Degree Days  
Heating Degree Days 9    
Growing Degree Days 6 (Base 50)    
Moisture  
Dew Point 46 °F    
Average Humidity 73    
Maximum Humidity 93    
Minimum Humidity 46    
Precipitation  
Precipitation 0.00 in - - ()
Sea Level Pressure  
Sea Level Pressure 30.30 in    
Wind  
Wind Speed 5 mph ()    
Max Wind Speed 9 mph    
Max Gust Speed -    
Visibility 10.0 miles    
Events      
Averages and records for this station are not official NWS values.
T = Trace of Precipitation, MM = Missing Value Source: Averaged Metar Reports

Daily Weather History Graph

Daily Weather History Graph

Search for Another Location

Airport or City:

Astronomy

Sep. 19, 2019 Rise Set
Actual Time 6:57 AM EDT 7:16 PM EDT
Civil Twilight 6:29 AM EDT 7:44 PM EDT
Nautical Twilight 5:56 AM EDT 8:17 PM EDT
Astronomical Twilight 5:22 AM EDT 8:51 PM EDT
Moon 10:18 PM EDT (9/19) 12:04 PM EDT (9/19)
Length of Visible Light 13h 15m
Length of Day
12h 19m
Waning Gibbous, 74% of the Moon is Illuminated
Sep 19
Waning Gibbous
Sep 21
Last Quarter
Sep 28
New
Oct 5
First Quarter
Oct 13
Full

Hourly Weather History & Observations

Time (EDT) Temp. Windchill Dew Point Humidity Pressure Visibility Wind Dir Wind Speed Gust Speed Precip Events Conditions
12:15 AM 50.0 °F - 46.4 °F 87% 30.30 in 10.0 mi ESE 4.6 mph - N/A   Clear
12:35 AM 51.8 °F - 44.6 °F 76% 30.30 in 10.0 mi ESE 8.1 mph - N/A   Clear
12:55 AM 50.0 °F - 44.6 °F 82% 30.30 in 10.0 mi ESE 4.6 mph - N/A   Clear
1:35 AM 50.0 °F - 44.6 °F 82% 30.30 in 10.0 mi SE 4.6 mph - N/A   Clear
1:55 AM 50.0 °F - 44.6 °F 82% 30.30 in 10.0 mi SE 3.5 mph - N/A   Clear
2:15 AM 48.2 °F - 46.4 °F 93% 30.30 in 10.0 mi Calm Calm - N/A   Clear
2:35 AM 50.0 °F - 44.6 °F 82% 30.30 in 10.0 mi Calm Calm - N/A   Clear
3:15 AM 50.0 °F - 44.6 °F 82% 30.30 in 10.0 mi SSE 3.5 mph - N/A   Clear
3:35 AM 50.0 °F - 42.8 °F 76% 30.30 in 10.0 mi SSE 6.9 mph - N/A   Clear
3:55 AM 50.0 °F - 42.8 °F 76% 30.29 in 10.0 mi SSE 6.9 mph - N/A   Clear
4:15 AM 48.2 °F - 42.8 °F 82% 30.30 in 10.0 mi SSE 6.9 mph - N/A   Clear
4:35 AM 50.0 °F - 42.8 °F 76% 30.30 in 10.0 mi SSE 6.9 mph - N/A   Clear
4:55 AM 48.2 °F - 42.8 °F 82% 30.29 in 10.0 mi SSE 4.6 mph - N/A   Clear
5:15 AM 48.2 °F - 42.8 °F 82% 30.29 in 10.0 mi Calm Calm - N/A   Clear
5:35 AM 46.4 °F - 42.8 °F 87% 30.29 in 10.0 mi Calm Calm - N/A   Clear
5:55 AM 46.4 °F 43.5 °F 42.8 °F 87% 30.29 in 10.0 mi SSE 5.8 mph - N/A   Clear
6:15 AM 46.4 °F 45.2 °F 42.8 °F 87% 30.29 in 10.0 mi South 3.5 mph - N/A   Clear
6:35 AM 46.4 °F 44.3 °F 44.6 °F 93% 30.30 in 10.0 mi South 4.6 mph - N/A   Clear
6:55 AM 46.4 °F 45.2 °F 44.6 °F 93% 30.30 in 10.0 mi South 3.5 mph - N/A   Clear
7:15 AM 46.4 °F 44.3 °F 44.6 °F 93% 30.30 in 10.0 mi South 4.6 mph - N/A   Clear
7:35 AM 46.4 °F 43.5 °F 44.6 °F 93% 30.31 in 10.0 mi South 5.8 mph - N/A   Clear
7:55 AM 46.4 °F 45.2 °F 44.6 °F 93% 30.32 in 10.0 mi SSW 3.5 mph - N/A   Clear
8:15 AM 48.2 °F - 44.6 °F 87% 30.32 in 10.0 mi South 3.5 mph - N/A   Clear
8:35 AM 50.0 °F - 44.6 °F 82% 30.33 in 10.0 mi South 6.9 mph - N/A   Clear
8:55 AM 50.0 °F - 44.6 °F 82% 30.33 in 10.0 mi SSW 8.1 mph - N/A   Clear
9:15 AM 50.0 °F - 44.6 °F 82% 30.33 in 10.0 mi SSW 6.9 mph - N/A   Clear
9:55 AM 50.0 °F - 46.4 °F 87% 30.34 in 10.0 mi SSW 8.1 mph - N/A   Clear
10:15 AM 51.8 °F - 46.4 °F 82% 30.34 in 10.0 mi SSW 8.1 mph - N/A   Clear
10:35 AM 53.6 °F - 48.2 °F 82% 30.34 in 10.0 mi South 8.1 mph - N/A   Clear
10:55 AM 55.4 °F - 50.0 °F 82% 30.34 in 10.0 mi South 6.9 mph - N/A   Clear
11:15 AM 57.2 °F - 50.0 °F 77% 30.34 in 10.0 mi SSW 6.9 mph - N/A   Clear
11:35 AM 57.2 °F - 48.2 °F 72% 30.33 in 10.0 mi SSW 8.1 mph - N/A   Clear
11:55 AM 59.0 °F - 48.2 °F 67% 30.33 in 10.0 mi SSW 8.1 mph - N/A   Clear
12:15 PM 59.0 °F - 48.2 °F 67% 30.33 in 10.0 mi SSW 9.2 mph - N/A   Clear
12:35 PM 59.0 °F - 48.2 °F 67% 30.32 in 10.0 mi SSW 9.2 mph - N/A   Clear
12:55 PM 60.8 °F - 48.2 °F 63% 30.32 in 10.0 mi South 9.2 mph - N/A   Clear
1:15 PM 62.6 °F - 48.2 °F 59% 30.32 in 10.0 mi SSE 5.8 mph - N/A   Clear
1:35 PM 62.6 °F - 46.4 °F 55% 30.30 in 10.0 mi South 6.9 mph - N/A   Clear
1:55 PM 64.4 °F - 48.2 °F 56% 30.30 in 10.0 mi South 8.1 mph - N/A   Clear
2:15 PM 64.4 °F - 48.2 °F 56% 30.29 in 10.0 mi SSW 9.2 mph - N/A   Clear
2:35 PM 64.4 °F - 48.2 °F 56% 30.30 in 10.0 mi SSW 8.1 mph - N/A   Clear
2:55 PM 64.4 °F - 44.6 °F 49% 30.29 in 10.0 mi SSW 6.9 mph - N/A   Clear
3:15 PM 64.4 °F - 44.6 °F 49% 30.30 in 10.0 mi SW 6.9 mph - N/A   Clear
3:35 PM 64.4 °F - 44.6 °F 49% 30.29 in 10.0 mi South 6.9 mph - N/A   Clear
3:55 PM 66.2 °F - 44.6 °F 46% 30.29 in 10.0 mi SSE 5.8 mph - N/A   Clear
4:15 PM 66.2 °F - 44.6 °F 46% 30.30 in 10.0 mi South 4.6 mph - N/A   Clear
4:35 PM 66.2 °F - 46.4 °F 49% 30.28 in 10.0 mi South 8.1 mph - N/A   Clear
4:55 PM 66.2 °F - 46.4 °F 49% 30.28 in 10.0 mi South 3.5 mph - N/A   Clear
5:15 PM 64.4 °F - 46.4 °F 52% 30.28 in 10.0 mi SE 6.9 mph - N/A   Clear
5:35 PM 64.4 °F - 46.4 °F 52% 30.28 in 10.0 mi SE 5.8 mph - N/A   Clear
5:55 PM 62.6 °F - 46.4 °F 55% 30.27 in 10.0 mi SSE 4.6 mph - N/A   Clear
6:15 PM 60.8 °F - 46.4 °F 59% 30.26 in 10.0 mi SE 5.8 mph - N/A   Clear
6:35 PM 59.0 °F - 46.4 °F 63% 30.27 in 10.0 mi SSE 4.6 mph - N/A   Clear
6:55 PM 59.0 °F - 46.4 °F 63% 30.26 in 10.0 mi South 3.5 mph - N/A   Clear
7:15 PM 59.0 °F - 46.4 °F 63% 30.26 in 10.0 mi South 3.5 mph - N/A   Clear
7:35 PM 59.0 °F - 44.6 °F 59% 30.27 in 10.0 mi South 3.5 mph - N/A   Clear
7:55 PM 57.2 °F - 44.6 °F 63% 30.27 in 10.0 mi South 4.6 mph - N/A   Clear
8:15 PM 57.2 °F - 44.6 °F 63% 30.27 in 10.0 mi South 4.6 mph - N/A   Clear
8:35 PM 55.4 °F - 44.6 °F 67% 30.28 in 10.0 mi South 3.5 mph - N/A   Clear
8:55 PM 55.4 °F - 44.6 °F 67% 30.28 in 10.0 mi South 3.5 mph - N/A   Clear
9:15 PM 55.4 °F - 46.4 °F 72% 30.28 in 10.0 mi South 4.6 mph - N/A   Clear
9:35 PM 53.6 °F - 46.4 °F 77% 30.28 in 10.0 mi South 3.5 mph - N/A   Clear
9:55 PM 53.6 °F - 46.4 °F 77% 30.28 in 10.0 mi South 3.5 mph - N/A   Clear
10:15 PM 53.6 °F - 46.4 °F 77% 30.28 in 10.0 mi South 5.8 mph - N/A   Clear
10:35 PM 53.6 °F - 46.4 °F 77% 30.28 in 10.0 mi SSW 3.5 mph - N/A   Clear
10:55 PM 53.6 °F - 46.4 °F 77% 30.27 in 10.0 mi SSW 5.8 mph - N/A   Clear
11:15 PM 51.8 °F - 48.2 °F 88% 30.27 in 10.0 mi SSW 5.8 mph - N/A   Clear
11:35 PM 51.8 °F - 48.2 °F 88% 30.27 in 10.0 mi SSW 4.6 mph - N/A   Clear
11:55 PM 51.8 °F - 48.2 °F 88% 30.27 in 10.0 mi SSW 5.8 mph - N/A   Clear